sat.trackr.live / text

‹ back to catalog

O3B FM7

NORAD 40080 · 2014-038B

PAYLOAD ACTIVE UNKNOWN

§ Identity

Operator
Country
O3B
Launch date
2014-07-10
Launch site
FRGUI
Launch vehicle
Mass (kg)
RCS (m²)
1.40

Purposes: comms

External: N2YO · Heavens-Above · Gunter

§ Orbital elements

Epoch: 2026-09-19T19:12:03.063744Z

Period
287.93 min
Inclination
0.0419°
Eccentricity
0.0002835
Mean motion
5.00115746 rev/d
Perigee alt
8,061.8 km
Apogee alt
8,070.0 km
Semi-major
14,444.0 km
B*
0.0000e+0
RAAN
349.8003°
Arg perigee
148.0762°
Mean anomaly
222.1475°
Rev number
22,260

§ Raw data

O3B FM71 40080U 14038B   26262.80003546 -.00000027  00000+0  00000+0 0  99902 40080   0.0419 349.8003 0002835 148.0762 222.1475  5.00115746222605

JSON: /api/v1/satellites/40080 · /tle

For live sub-satellite position, see the globe view (requires WebGL).

§ Visibility from observer

Set your observer location to see the next 7 days of passes ≥ 10°. The values pass through the URL so the page stays shareable.

No JS? Fill the form by hand. The geolocation button needs JavaScript.